START_TIME,STEP,MOV.,M15,t_acc.,M20,t_acc.
1979-07-24 03:00:43.410 ,1,0,0.,24.0,0.,24.0
1979-07-24 03:01:07.410 ,2,1,0.,24.0,0.,24.0
1979-07-24 03:01:31.410 ,2,0,0.,24.0,0.,24.0
1979-07-24 03:01:55.410 ,3,1,0.,24.0,0.,24.0
1979-07-24 03:02:19.410 ,3,0,0.,24.0,0.,24.0
1979-07-24 03:02:43.410 ,4,1,0.,24.0,0.,24.0
1979-07-24 03:03:07.410 ,4,0,0.,24.0,0.,24.0
1979-07-24 03:03:31.410 ,5,1,0.,24.0,0.,24.0
1979-07-24 03:03:55.410 ,5,0,0.,24.0,0.,24.0
1979-07-24 03:04:19.410 ,6,1,0.,24.0,0.,24.0
1979-07-24 03:04:43.410 ,6,0,0.,24.0,0.,24.0
1979-07-24 03:05:07.410 ,7,1,0.,24.0,0.,24.0
1979-07-24 03:05:31.410 ,7,0,0.,24.0,0.,24.0
1979-07-24 03:05:55.410 ,7,1,0.,24.0,0.,24.0
1979-07-24 03:06:19.410 ,7,0,0.,24.0,0.,24.0
1979-07-24 03:06:43.410 ,6,1,0.,24.0,0.,24.0
1979-07-24 03:07:07.410 ,6,0,0.,24.0,0.,24.0
1979-07-24 03:07:31.410 ,5,1,0.,24.0,0.,24.0
1979-07-24 03:07:55.410 ,5,0,0.,24.0,0.,24.0
1979-07-24 03:08:19.410 ,4,1,0.,24.0,0.,24.0
1979-07-24 03:08:43.410 ,4,0,0.,24.0,0.,24.0
1979-07-24 03:09:07.410 ,3,1,0.,24.0,0.,24.0
1979-07-24 03:09:31.410 ,3,0,0.,24.0,0.,24.0
1979-07-24 03:09:55.410 ,2,1,0.,24.0,0.,24.0
1979-07-24 03:10:19.410 ,2,0,0.,24.0,0.,24.0
1979-07-24 03:10:43.410 ,1,1,0.,24.0,0.,24.0
1979-07-24 03:11:07.410 ,1,0,0.,24.0,0.,24.0
1979-07-24 03:11:31.410 ,0,1,0.,24.0,0.,24.0
1979-07-24 03:11:55.410 ,0,0,0.,24.0,0.,24.0
1979-07-24 03:12:19.410 ,0,1,0.,24.0,0.,24.0
1979-07-24 03:12:43.410 ,0,0,0.,24.0,0.,24.0
1979-07-24 03:13:07.410 ,1,1,0.,24.0,0.,24.0
1979-07-24 03:13:31.410 ,1,0,0.,24.0,0.,24.0
1979-07-24 03:13:55.410 ,2,1,0.,24.0,0.,24.0
1979-07-24 03:14:19.410 ,2,0,0.,24.0,0.,24.0
1979-07-24 03:14:43.410 ,3,1,0.,24.0,0.,24.0
1979-07-24 03:15:07.410 ,3,0,0.,24.0,0.,24.0
1979-07-24 03:15:31.410 ,4,1,0.,24.0,0.,24.0
1979-07-24 03:15:55.410 ,4,0,0.,24.0,0.,24.0
1979-07-24 03:16:19.410 ,5,1,0.,24.0,0.,24.0
1979-07-24 03:16:43.410 ,5,0,0.,24.0,0.,24.0
1979-07-24 03:17:07.410 ,6,1,0.,24.0,0.,24.0
1979-07-24 03:17:31.410 ,6,0,0.,24.0,0.,24.0
1979-07-24 03:17:55.410 ,7,1,0.,24.0,0.,24.0
1979-07-24 03:18:19.410 ,7,0,0.,24.0,0.,24.0
1979-07-24 03:18:43.410 ,7,1,0.,24.0,0.,24.0
1979-07-24 03:19:07.410 ,7,0,0.,24.0,0.,24.0
1979-07-24 03:19:31.410 ,6,1,0.,24.0,0.,24.0
1979-07-24 03:19:55.410 ,6,0,0.,24.0,0.,24.0
1979-07-24 03:20:19.410 ,5,1,0.,24.0,0.,24.0
1979-07-24 03:20:43.410 ,5,0,0.,24.0,0.,24.0
1979-07-24 03:21:07.410 ,4,1,0.,24.0,0.,24.0
1979-07-24 03:21:31.410 ,4,0,0.,24.0,0.,24.0
1979-07-24 03:21:55.410 ,3,1,0.,24.0,0.,24.0
1979-07-24 03:22:19.410 ,3,0,0.,24.0,0.,24.0
1979-07-24 03:22:43.410 ,2,1,0.,24.0,0.,24.0
1979-07-24 03:23:07.410 ,2,0,0.,24.0,0.,24.0
1979-07-24 03:23:31.410 ,1,1,0.,24.0,0.,24.0
1979-07-24 03:23:55.410 ,1,0,0.,24.0,0.,24.0
1979-07-24 03:24:19.410 ,0,1,0.,24.0,0.,24.0
1979-07-24 03:24:43.410 ,0,0,0.,24.0,0.,24.0
1979-07-24 03:25:07.410 ,0,1,0.,24.0,0.,24.0
1979-07-24 03:25:31.410 ,0,0,0.,24.0,0.,24.0
1979-07-24 03:25:55.410 ,1,1,0.,24.0,0.,24.0
1979-07-24 03:26:19.410 ,1,0,0.,24.0,0.,24.0
1979-07-24 03:26:43.410 ,2,1,0.,24.0,0.,24.0
1979-07-24 03:27:07.410 ,2,0,0.,24.0,0.,24.0
1979-07-24 03:27:31.410 ,3,1,0.,24.0,0.,24.0
1979-07-24 03:27:55.410 ,3,0,0.,24.0,0.,24.0
1979-07-24 03:28:19.410 ,4,1,0.,24.0,0.,24.0
1979-07-24 03:28:43.410 ,4,0,0.,24.0,0.,24.0
1979-07-24 03:29:07.410 ,5,1,0.,24.0,0.,24.0
1979-07-24 03:29:31.410 ,5,0,0.,24.0,0.,24.0
1979-07-24 03:29:55.410 ,6,1,0.,24.0,0.,24.0
1979-07-24 03:30:19.410 ,6,0,0.,24.0,0.,24.0
1979-07-24 03:30:43.410 ,7,0,0.,24.0,0.,24.0
1979-07-24 03:31:07.410 ,7,0,0.,24.0,0.,24.0
1979-07-24 03:31:31.410 ,3,1,0.,24.0,0.,24.0
1979-07-24 03:31:55.410 ,0,1,0.,24.0,0.,24.0
1979-07-24 03:32:19.410 ,4,1,0.,24.0,0.,24.0
1979-07-24 03:32:43.410 ,7,1,0.,24.0,0.,24.0
1979-07-24 03:33:07.410 ,3,1,0.,24.0,0.,24.0
1979-07-24 03:33:31.410 ,0,1,0.,24.0,0.,24.0
1979-07-24 03:33:55.410 ,4,1,0.,24.0,0.,24.0
1979-07-24 03:34:19.410 ,7,1,0.,24.0,0.,24.0
1979-07-24 03:34:43.410 ,3,1,0.,24.0,0.,24.0
1979-07-24 03:35:07.410 ,0,1,0.,24.0,0.,24.0
1979-07-24 03:35:31.410 ,4,1,0.,24.0,0.,24.0
1979-07-24 03:35:55.410 ,7,1,0.,24.0,0.,24.0
1979-07-24 03:36:19.410 ,3,1,0.,24.0,0.,24.0
1979-07-24 03:36:43.410 ,0,1,0.,24.0,0.,24.0
1979-07-24 03:37:07.410 ,4,1,0.,24.0,0.,24.0
1979-07-24 03:37:31.410 ,7,1,0.,24.0,0.,24.0
1979-07-24 03:37:55.410 ,3,1,0.,24.0,0.,24.0
1979-07-24 03:38:19.410 ,0,1,0.,24.0,0.,24.0
1979-07-24 03:38:43.410 ,4,1,0.,24.0,0.,24.0
1979-07-24 03:39:07.410 ,7,1,0.,24.0,0.,24.0
1979-07-24 03:39:31.410 ,3,1,0.,24.0,0.,24.0
1979-07-24 03:39:55.410 ,0,1,0.,24.0,0.,24.0
1979-07-24 03:40:19.410 ,4,1,0.,24.0,0.,24.0
1979-07-24 03:40:43.410 ,7,1,0.,24.0,0.,24.0
1979-07-24 03:41:55.410 ,0,0,0.,24.0,0.,24.0
1979-07-24 03:42:19.410 ,0,0,0.,24.0,0.,24.0
1979-07-24 03:42:19.410 ,0,0,0.,24.0,0.,24.0
1979-07-24 03:42:43.410 ,5,1,0.,24.0,0.,24.0
1979-07-24 03:43:07.410 ,5,0,0.,24.0,0.,24.0
1979-07-24 03:43:31.410 ,4,1,0.,24.0,0.,24.0
1979-07-24 03:43:55.410 ,4,0,0.,24.0,0.,24.0
1979-07-24 03:44:19.410 ,3,1,0.,24.0,0.,24.0
1979-07-24 03:44:43.410 ,3,0,0.,24.0,0.,24.0
1979-07-24 03:45:07.410 ,2,1,0.,24.0,0.,24.0
1979-07-24 03:45:31.410 ,2,0,0.,24.0,0.,24.0
1979-07-24 03:45:55.410 ,1,1,0.,24.0,0.,24.0
1979-07-24 03:46:19.410 ,1,0,0.,24.0,0.,24.0
1979-07-24 03:46:43.410 ,0,1,0.,24.0,0.,24.0
1979-07-24 03:47:07.410 ,0,0,0.,24.0,0.,24.0
1979-07-24 03:47:31.410 ,0,1,0.,24.0,0.,24.0
1979-07-24 03:47:55.410 ,0,0,0.,24.0,0.,24.0
1979-07-24 03:48:19.410 ,1,1,0.,24.0,0.,24.0
1979-07-24 03:48:43.410 ,1,0,0.,24.0,0.,24.0
1979-07-24 03:49:07.410 ,2,1,0.,24.0,0.,24.0
1979-07-24 03:49:31.410 ,2,0,0.,24.0,0.,24.0
1979-07-24 03:49:55.400 ,3,1,0.,24.0,0.,24.0
1979-07-24 03:50:19.400 ,3,0,0.,24.0,0.,24.0
1979-07-24 03:50:43.400 ,4,1,0.,24.0,0.,24.0
1979-07-24 03:51:07.400 ,4,0,0.,24.0,0.,24.0
1979-07-24 03:51:31.400 ,5,1,0.,24.0,0.,24.0
1979-07-24 03:51:55.400 ,5,0,0.,24.0,0.,24.0
1979-07-24 03:52:19.400 ,6,1,0.,24.0,0.,24.0
1979-07-24 03:52:43.400 ,6,0,0.,24.0,0.,24.0
1979-07-24 03:53:07.400 ,7,1,0.,24.0,0.,24.0
1979-07-24 03:53:31.400 ,7,0,0.,24.0,0.,24.0
1979-07-24 03:53:55.400 ,7,1,0.,24.0,0.,24.0
1979-07-24 03:54:19.400 ,7,0,0.,24.0,0.,24.0
1979-07-24 03:54:43.400 ,6,1,0.,24.0,0.,24.0
1979-07-24 03:55:07.400 ,6,0,0.,24.0,0.,24.0
1979-07-24 03:55:55.400 ,5,0,0.,24.0,0.,24.0
1979-07-24 03:56:19.400 ,4,1,0.,24.0,0.,24.0
1979-07-24 03:56:43.400 ,4,0,0.,24.0,0.,24.0
1979-07-24 03:57:07.400 ,3,1,0.,24.0,0.,24.0
1979-07-24 03:57:31.400 ,3,0,0.,24.0,0.,24.0
1979-07-24 03:57:55.400 ,2,1,0.,24.0,0.,24.0
1979-07-24 03:58:19.400 ,2,0,0.,24.0,0.,24.0
1979-07-24 03:58:43.400 ,1,1,0.,24.0,0.,24.0
1979-07-24 03:59:07.400 ,1,0,0.,24.0,0.,24.0
1979-07-24 03:59:31.400 ,0,1,0.,24.0,0.,24.0
1979-07-24 03:59:55.400 ,0,0,0.,24.0,0.,24.0
1979-07-24 04:00:19.400 ,0,1,0.,24.0,0.,24.0
1979-07-24 04:00:43.410 ,0,0,0.,24.0,0.,24.0
1979-07-24 04:01:07.410 ,1,1,0.,24.0,0.,24.0
1979-07-24 04:01:31.410 ,1,0,0.,24.0,0.,24.0
1979-07-24 04:01:55.410 ,2,1,0.,24.0,0.,24.0
1979-07-24 04:02:19.410 ,2,0,0.,24.0,0.,24.0
1979-07-24 04:02:43.410 ,3,1,0.,24.0,0.,24.0
1979-07-24 04:03:07.410 ,3,0,0.,24.0,0.,24.0
1979-07-24 04:03:31.410 ,4,1,0.,24.0,0.,24.0
1979-07-24 04:03:55.410 ,4,0,0.,24.0,0.,24.0
1979-07-24 04:04:19.400 ,5,1,0.,24.0,0.,24.0
1979-07-24 04:04:43.410 ,5,0,0.,24.0,0.,24.0
1979-07-24 04:05:07.410 ,6,1,0.,24.0,0.,24.0
1979-07-24 04:05:31.410 ,6,0,0.,24.0,0.,24.0
1979-07-24 04:05:55.410 ,7,1,0.,24.0,0.,24.0
1979-07-24 04:06:19.400 ,7,0,0.,24.0,0.,24.0
1979-07-24 04:06:43.410 ,7,1,0.,24.0,0.,24.0
1979-07-24 04:07:07.410 ,7,0,0.,24.0,0.,24.0
1979-07-24 04:07:31.410 ,6,1,0.,24.0,0.,24.0
1979-07-24 04:07:55.410 ,6,0,0.,24.0,0.,24.0
1979-07-24 04:08:19.400 ,5,1,0.,24.0,0.,24.0
1979-07-24 04:08:43.410 ,5,0,0.,24.0,0.,24.0
1979-07-24 04:09:07.410 ,4,1,0.,24.0,0.,24.0
1979-07-24 04:09:31.410 ,4,0,0.,24.0,0.,24.0
1979-07-24 04:09:55.400 ,0,0,0.,24.0,0.,24.0
1979-07-24 04:10:19.400 ,0,0,0.,24.0,0.,24.0
1979-07-24 04:10:43.400 ,2,1,0.,24.0,0.,24.0
1979-07-24 04:11:07.400 ,2,0,0.,24.0,0.,24.0
1979-07-24 04:11:31.400 ,1,1,0.,24.0,0.,24.0
1979-07-24 04:11:55.400 ,1,0,0.,24.0,0.,24.0
1979-07-24 04:12:19.400 ,0,1,0.,24.0,0.,24.0
1979-07-24 04:12:43.400 ,0,0,0.,24.0,0.,24.0
1979-07-24 04:13:07.400 ,0,1,0.,24.0,0.,24.0
1979-07-24 04:13:31.400 ,0,0,0.,24.0,0.,24.0
1979-07-24 04:13:55.400 ,1,1,0.,24.0,0.,24.0
1979-07-24 04:14:19.400 ,1,0,0.,24.0,0.,24.0
1979-07-24 04:14:43.400 ,0,0,,0,,0
1979-07-24 04:15:07.400 ,0,0,,0,,0
1979-07-24 04:15:07.400 ,2,0,0.,24.0,0.,24.0
1979-07-24 04:15:31.400 ,3,1,0.,24.0,0.,24.0
1979-07-24 04:15:55.400 ,3,0,0.,24.0,0.,24.0
1979-07-24 04:16:19.400 ,4,1,0.,24.0,0.,24.0
1979-07-24 04:16:43.400 ,4,0,0.,24.0,0.,24.0
1979-07-24 04:17:07.400 ,5,1,0.,24.0,0.,24.0
1979-07-24 04:17:31.400 ,5,0,0.,24.0,0.,24.0
1979-07-24 04:17:55.400 ,6,1,0.,24.0,0.,24.0
1979-07-24 04:18:19.400 ,6,0,0.,24.0,0.,24.0
1979-07-24 04:18:43.400 ,7,0,0.,24.0,0.,24.0
1979-07-24 04:19:07.400 ,7,0,0.,24.0,0.,24.0
1979-07-24 04:19:31.400 ,3,1,0.,24.0,0.,24.0
1979-07-24 04:19:55.400 ,0,1,0.,24.0,0.,24.0
1979-07-24 04:20:19.400 ,4,1,0.,24.0,0.,24.0
1979-07-24 04:20:43.400 ,7,1,0.,24.0,0.,24.0
1979-07-24 04:21:07.400 ,3,1,0.,24.0,0.,24.0
1979-07-24 04:21:31.400 ,0,1,0.,24.0,0.,24.0
1979-07-24 04:21:55.400 ,4,1,0.,24.0,0.,24.0
1979-07-24 04:22:19.400 ,7,1,0.,24.0,0.,24.0
1979-07-24 04:22:43.400 ,3,1,0.,24.0,0.,24.0
1979-07-24 04:23:07.400 ,0,1,0.,24.0,0.,24.0
1979-07-24 04:23:31.400 ,4,1,0.,24.0,0.,24.0
1979-07-24 04:23:55.400 ,7,1,0.,24.0,0.,24.0
1979-07-24 04:24:19.400 ,3,1,0.,24.0,0.,24.0
1979-07-24 04:24:43.400 ,0,1,0.,24.0,0.,24.0
1979-07-24 04:25:07.400 ,4,1,0.,24.0,0.,24.0
1979-07-24 04:25:31.400 ,7,1,0.,24.0,0.,24.0
1979-07-24 04:25:55.400 ,3,1,0.,24.0,0.,24.0
1979-07-24 04:26:19.400 ,0,1,0.,24.0,0.,24.0
1979-07-24 04:26:43.400 ,4,1,0.,24.0,0.,24.0
1979-07-24 04:27:07.400 ,7,1,0.,24.0,0.,24.0
1979-07-24 04:27:31.400 ,3,1,0.,24.0,0.,24.0
1979-07-24 04:27:55.400 ,0,1,0.,24.0,0.,24.0
1979-07-24 04:29:07.400 ,0,0,0.,24.0,0.,24.0
1979-07-24 04:29:31.400 ,0,1,0.,24.0,0.,24.0
1979-07-24 04:30:43.400 ,0,0,0.,24.0,0.,24.0
1979-07-24 04:31:07.400 ,0,0,0.,24.0,0.,24.0
1979-07-24 04:31:31.400 ,4,1,0.,24.0,0.,24.0
1979-07-24 04:31:55.400 ,4,0,0.,24.0,0.,24.0
1979-07-24 04:32:19.400 ,3,1,0.,24.0,0.,24.0
1979-07-24 04:32:43.400 ,3,0,0.,24.0,0.,24.0
1979-07-24 04:33:07.400 ,2,1,0.,24.0,0.,24.0
1979-07-24 04:33:31.400 ,2,0,0.,24.0,0.,24.0
1979-07-24 04:33:55.400 ,1,1,0.,24.0,0.,24.0
1979-07-24 04:34:19.400 ,1,0,0.,24.0,0.,24.0
1979-07-24 04:34:43.400 ,0,1,0.,24.0,0.,24.0
1979-07-24 04:35:07.400 ,0,0,0.,24.0,0.,24.0
1979-07-24 04:35:31.400 ,0,1,0.,24.0,0.,24.0
1979-07-24 04:35:55.400 ,0,0,1.,24.0,0.,24.0
1979-07-24 04:36:19.400 ,1,1,0.,24.0,0.,24.0
1979-07-24 04:36:43.400 ,1,0,0.,24.0,0.,24.0
1979-07-24 04:37:07.400 ,2,1,0.,24.0,0.,24.0
1979-07-24 04:37:31.400 ,2,0,0.,24.0,0.,24.0
1979-07-24 04:37:55.400 ,3,1,0.,24.0,0.,24.0
1979-07-24 04:38:19.400 ,3,0,0.,24.0,0.,24.0
1979-07-24 04:38:43.400 ,4,1,0.,24.0,0.,24.0
1979-07-24 04:39:07.400 ,4,0,0.,24.0,0.,24.0
1979-07-24 04:39:31.400 ,5,1,0.,24.0,0.,24.0
1979-07-24 04:39:55.400 ,5,0,0.,24.0,0.,24.0
1979-07-24 04:40:19.400 ,6,1,0.,24.0,0.,24.0
1979-07-24 04:40:43.400 ,6,0,0.,24.0,0.,24.0
1979-07-24 04:41:07.400 ,7,1,0.,24.0,0.,24.0
1979-07-24 04:41:31.400 ,7,0,0.,24.0,0.,24.0
1979-07-24 04:41:55.400 ,7,1,0.,24.0,0.,24.0
1979-07-24 04:42:19.400 ,7,0,0.,24.0,0.,24.0
1979-07-24 04:42:43.400 ,6,1,0.,24.0,0.,24.0
1979-07-24 04:43:07.400 ,6,0,0.,24.0,0.,24.0
1979-07-24 04:43:31.400 ,5,1,0.,24.0,0.,24.0
1979-07-24 04:43:55.400 ,5,0,0.,24.0,0.,24.0
1979-07-24 04:44:19.400 ,4,1,0.,24.0,0.,24.0
1979-07-24 04:44:43.400 ,4,0,0.,24.0,0.,24.0
1979-07-24 04:45:07.400 ,3,1,0.,24.0,0.,24.0
1979-07-24 04:45:31.400 ,3,0,0.,24.0,0.,24.0
1979-07-24 04:45:55.400 ,2,1,0.,24.0,0.,24.0
1979-07-24 04:46:19.400 ,2,0,0.,24.0,0.,24.0
1979-07-24 04:46:43.400 ,1,1,0.,24.0,0.,24.0
1979-07-24 04:47:07.400 ,1,0,0.,24.0,0.,24.0
1979-07-24 04:47:31.400 ,0,1,0.,24.0,0.,24.0
1979-07-24 04:47:55.400 ,0,0,0.,24.0,0.,24.0
1979-07-24 04:48:19.400 ,0,1,0.,24.0,0.,24.0
1979-07-24 04:48:43.400 ,0,0,0.,24.0,0.,24.0
1979-07-24 04:49:07.400 ,1,1,0.,24.0,0.,24.0
1979-07-24 04:49:31.400 ,1,0,0.,24.0,0.,24.0
1979-07-24 04:49:55.400 ,2,1,0.,24.0,0.,24.0
1979-07-24 04:50:19.400 ,2,0,0.,24.0,0.,24.0
1979-07-24 04:50:43.400 ,3,1,0.,24.0,0.,24.0
1979-07-24 04:51:07.400 ,3,0,0.,24.0,0.,24.0
1979-07-24 04:51:31.400 ,4,1,0.,24.0,0.,24.0
1979-07-24 04:51:55.400 ,4,0,0.,24.0,0.,24.0
1979-07-24 04:52:19.400 ,5,1,0.,24.0,0.,24.0
1979-07-24 04:52:43.400 ,5,0,0.,24.0,0.,24.0
1979-07-24 04:53:07.400 ,6,1,0.,24.0,0.,24.0
1979-07-24 04:53:31.400 ,6,0,0.,24.0,0.,24.0
1979-07-24 04:53:55.400 ,7,1,0.,24.0,0.,24.0
1979-07-24 04:54:19.400 ,7,0,0.,24.0,0.,24.0
1979-07-24 04:54:43.400 ,7,1,0.,24.0,0.,24.0
1979-07-24 04:55:07.400 ,7,0,0.,24.0,0.,24.0
1979-07-24 04:55:31.400 ,6,1,0.,24.0,0.,24.0
1979-07-24 04:55:55.400 ,6,0,0.,24.0,0.,24.0
1979-07-24 04:56:19.400 ,5,1,0.,24.0,0.,24.0
1979-07-24 04:56:43.400 ,5,0,0.,24.0,0.,24.0
1979-07-24 04:57:07.400 ,4,1,0.,24.0,0.,24.0
1979-07-24 04:57:31.400 ,4,0,0.,24.0,0.,24.0
1979-07-24 04:57:55.400 ,3,1,0.,24.0,0.,24.0
1979-07-24 04:58:19.400 ,0,0,,0,,0
1979-07-24 04:59:23.600 ,0,0,0.,24.0,0.,24.0
1979-07-24 04:59:31.400 ,1,1,0.,24.0,0.,24.0
1979-07-24 04:59:55.400 ,1,0,0.,24.0,0.,24.0
1979-07-24 05:00:19.400 ,0,1,0.,24.0,0.,24.0
1979-07-24 05:00:43.400 ,0,0,0.,24.0,0.,24.0
1979-07-24 05:01:07.400 ,0,1,0.,24.0,0.,24.0
1979-07-24 05:01:31.400 ,0,0,0.,24.0,0.,24.0
1979-07-24 05:01:55.400 ,1,1,0.,24.0,0.,24.0
1979-07-24 05:02:19.400 ,1,0,0.,24.0,0.,24.0
1979-07-24 05:02:43.400 ,2,1,0.,24.0,0.,24.0
1979-07-24 05:03:07.400 ,2,0,0.,24.0,0.,24.0
1979-07-24 05:03:31.400 ,3,1,0.,24.0,0.,24.0
1979-07-24 05:03:55.400 ,3,0,0.,24.0,0.,24.0
1979-07-24 05:04:19.400 ,4,1,0.,24.0,0.,24.0
1979-07-24 05:04:43.400 ,4,0,0.,24.0,0.,24.0
1979-07-24 05:05:07.400 ,5,1,0.,24.0,0.,24.0
1979-07-24 05:05:31.400 ,5,0,0.,24.0,0.,24.0
1979-07-24 05:05:55.400 ,6,1,0.,24.0,0.,24.0
1979-07-24 05:06:19.400 ,6,0,0.,24.0,0.,24.0
1979-07-24 05:06:43.400 ,7,0,0.,24.0,0.,24.0
1979-07-24 05:07:07.400 ,7,0,0.,24.0,0.,24.0
1979-07-24 05:07:31.400 ,3,1,0.,24.0,0.,24.0
1979-07-24 05:07:55.400 ,0,1,0.,24.0,0.,24.0
1979-07-24 05:08:19.400 ,4,1,0.,24.0,0.,24.0
1979-07-24 05:08:43.400 ,7,1,0.,24.0,0.,24.0
1979-07-24 05:09:07.400 ,3,1,0.,24.0,0.,24.0
1979-07-24 05:09:31.400 ,0,1,0.,24.0,0.,24.0
1979-07-24 05:09:55.400 ,4,1,0.,24.0,0.,24.0
1979-07-24 05:10:19.400 ,7,1,0.,24.0,0.,24.0
1979-07-24 05:10:43.400 ,3,1,0.,24.0,0.,24.0
1979-07-24 05:11:07.400 ,0,1,0.,24.0,0.,24.0
1979-07-24 05:11:31.400 ,4,1,0.,24.0,0.,24.0
1979-07-24 05:11:55.400 ,7,1,0.,24.0,0.,24.0
1979-07-24 05:12:19.400 ,3,1,0.,24.0,0.,24.0
1979-07-24 05:12:43.400 ,0,1,0.,24.0,0.,24.0
1979-07-24 05:13:07.400 ,4,1,0.,24.0,0.,24.0
1979-07-24 05:13:31.400 ,7,1,0.,24.0,0.,24.0
1979-07-24 05:13:55.400 ,3,1,0.,24.0,0.,24.0
1979-07-24 05:14:19.400 ,0,1,0.,24.0,0.,24.0
1979-07-24 05:14:43.400 ,4,1,0.,24.0,0.,24.0
1979-07-24 05:15:07.400 ,7,1,0.,24.0,0.,24.0
1979-07-24 05:15:31.400 ,3,1,0.,24.0,0.,24.0
1979-07-24 05:15:55.400 ,0,1,0.,24.0,0.,24.0
1979-07-24 05:16:19.400 ,4,1,0.,24.0,0.,24.0
1979-07-24 05:16:43.400 ,7,1,0.,24.0,0.,24.0
1979-07-24 05:17:07.400 ,3,1,0.,24.0,0.,24.0
1979-07-24 05:17:31.400 ,0,1,0.,24.0,0.,24.0
1979-07-24 05:17:55.400 ,0,0,0.,24.0,0.,24.0
1979-07-24 05:18:19.400 ,0,0,0.,24.0,0.,24.0
1979-07-24 05:18:43.400 ,5,1,0.,24.0,0.,24.0
1979-07-24 05:19:07.400 ,5,0,0.,24.0,0.,24.0
1979-07-24 05:19:31.400 ,4,1,0.,24.0,0.,24.0
1979-07-24 05:19:55.400 ,4,0,0.,24.0,0.,24.0
1979-07-24 05:20:19.400 ,3,1,0.,24.0,0.,24.0
1979-07-24 05:20:43.400 ,3,0,0.,24.0,0.,24.0
1979-07-24 05:21:07.400 ,2,1,0.,24.0,0.,24.0
1979-07-24 05:21:31.400 ,2,0,0.,24.0,0.,24.0
1979-07-24 05:21:55.400 ,1,1,0.,24.0,0.,24.0
1979-07-24 05:22:19.400 ,1,0,0.,24.0,0.,24.0
1979-07-24 05:22:43.400 ,0,1,0.,24.0,0.,24.0
1979-07-24 05:23:07.400 ,0,0,0.,24.0,0.,24.0
1979-07-24 05:23:31.400 ,0,1,0.,24.0,0.,24.0
1979-07-24 05:23:55.400 ,0,0,0.,24.0,0.,24.0
1979-07-24 05:24:19.400 ,1,1,0.,24.0,0.,24.0
1979-07-24 05:24:43.400 ,1,0,0.,24.0,0.,24.0
1979-07-24 05:25:07.400 ,2,1,0.,24.0,0.,24.0
1979-07-24 05:25:31.400 ,2,0,0.,24.0,0.,24.0
1979-07-24 05:25:55.400 ,3,1,0.,24.0,0.,24.0
1979-07-24 05:26:19.400 ,3,0,0.,24.0,0.,24.0
1979-07-24 05:26:43.400 ,4,1,0.,24.0,0.,24.0
1979-07-24 05:27:07.400 ,4,0,0.,24.0,0.,24.0
1979-07-24 05:27:31.400 ,5,1,0.,24.0,0.,24.0
1979-07-24 05:27:55.400 ,5,0,0.,24.0,0.,24.0
1979-07-24 05:28:19.400 ,6,1,0.,24.0,0.,24.0
1979-07-24 05:28:43.400 ,6,0,0.,24.0,0.,24.0
1979-07-24 05:29:07.400 ,7,1,0.,24.0,0.,24.0
1979-07-24 05:29:31.400 ,7,0,0.,24.0,0.,24.0
1979-07-24 05:29:55.400 ,7,1,0.,24.0,0.,24.0
1979-07-24 05:30:19.400 ,7,0,0.,24.0,0.,24.0
1979-07-24 05:30:43.400 ,6,1,0.,24.0,0.,24.0
1979-07-24 05:31:07.400 ,6,0,0.,24.0,0.,24.0
1979-07-24 05:31:31.400 ,5,1,0.,24.0,0.,24.0
1979-07-24 05:31:55.400 ,5,0,0.,24.0,0.,24.0
1979-07-24 05:32:19.400 ,4,1,0.,24.0,0.,24.0
1979-07-24 05:32:43.400 ,4,0,0.,24.0,0.,24.0
1979-07-24 05:33:07.400 ,3,1,0.,24.0,0.,24.0
1979-07-24 05:33:31.400 ,3,0,1.,24.0,0.,24.0
1979-07-24 05:33:55.400 ,2,1,0.,24.0,0.,24.0
1979-07-24 05:34:19.400 ,2,0,0.,24.0,0.,24.0
1979-07-24 05:34:43.400 ,1,1,0.,24.0,0.,24.0
1979-07-24 05:35:07.400 ,1,0,0.,24.0,0.,24.0
1979-07-24 05:35:31.400 ,0,1,0.,24.0,0.,24.0
1979-07-24 05:35:55.400 ,0,0,0.,24.0,0.,24.0
1979-07-24 05:36:19.400 ,0,1,0.,24.0,0.,24.0
1979-07-24 05:36:43.400 ,0,0,0.,24.0,0.,24.0
1979-07-24 05:37:07.400 ,1,1,0.,24.0,0.,24.0
1979-07-24 05:37:31.400 ,1,0,0.,24.0,0.,24.0
1979-07-24 05:37:55.400 ,2,1,0.,24.0,0.,24.0
1979-07-24 05:38:19.400 ,2,0,0.,24.0,0.,24.0
1979-07-24 05:38:43.400 ,3,1,0.,24.0,0.,24.0
1979-07-24 05:39:07.400 ,3,0,0.,24.0,0.,24.0
1979-07-24 05:39:31.400 ,4,1,0.,24.0,0.,24.0
1979-07-24 05:39:55.400 ,4,0,0.,24.0,0.,24.0
1979-07-24 05:40:19.400 ,5,1,0.,24.0,0.,24.0
1979-07-24 05:40:43.400 ,5,0,0.,24.0,0.,24.0
1979-07-24 05:41:07.400 ,6,1,0.,24.0,0.,24.0
1979-07-24 05:41:31.400 ,6,0,0.,24.0,0.,24.0
1979-07-24 05:41:55.400 ,7,1,0.,24.0,0.,24.0
1979-07-24 05:42:19.400 ,7,0,0.,24.0,0.,24.0
1979-07-24 05:42:43.400 ,7,1,0.,24.0,0.,24.0
1979-07-24 05:43:07.400 ,7,0,0.,24.0,0.,24.0
1979-07-24 05:43:31.400 ,6,1,0.,24.0,0.,24.0
1979-07-24 05:43:55.400 ,6,0,0.,24.0,0.,24.0
1979-07-24 05:44:19.400 ,5,1,0.,24.0,0.,24.0
1979-07-24 05:44:43.400 ,5,0,0.,24.0,0.,24.0
1979-07-24 05:45:07.400 ,4,1,0.,24.0,0.,24.0
1979-07-24 05:45:31.400 ,4,0,0.,24.0,0.,24.0
1979-07-24 05:45:55.400 ,3,1,0.,24.0,0.,24.0
1979-07-24 05:46:19.400 ,3,0,0.,24.0,0.,24.0
1979-07-24 05:46:43.400 ,2,1,0.,24.0,0.,24.0
1979-07-24 05:47:07.400 ,2,0,0.,24.0,0.,24.0
1979-07-24 05:47:31.400 ,1,1,0.,24.0,0.,24.0
1979-07-24 05:47:55.400 ,1,0,0.,24.0,0.,24.0
1979-07-24 05:48:19.400 ,0,1,0.,24.0,0.,24.0
1979-07-24 05:48:43.400 ,0,0,0.,24.0,0.,24.0
1979-07-24 05:49:07.400 ,0,1,0.,24.0,0.,24.0
1979-07-24 05:49:31.400 ,0,0,0.,24.0,0.,24.0
1979-07-24 05:49:55.400 ,1,1,0.,24.0,0.,24.0
1979-07-24 05:50:19.400 ,1,0,0.,24.0,0.,24.0
1979-07-24 05:50:43.400 ,2,1,0.,24.0,0.,24.0
1979-07-24 05:51:07.400 ,2,0,0.,24.0,0.,24.0
1979-07-24 05:51:31.400 ,3,1,0.,24.0,0.,24.0
1979-07-24 05:51:55.400 ,3,0,0.,24.0,0.,24.0
1979-07-24 05:52:19.400 ,4,1,0.,24.0,0.,24.0
1979-07-24 05:52:43.400 ,4,0,0.,24.0,0.,24.0
1979-07-24 05:53:07.400 ,5,1,0.,24.0,0.,24.0
1979-07-24 05:53:31.400 ,5,0,0.,24.0,0.,24.0
1979-07-24 05:53:55.400 ,6,1,0.,24.0,0.,24.0
1979-07-24 05:54:19.400 ,6,0,0.,24.0,0.,24.0
1979-07-24 05:54:43.400 ,7,0,0.,24.0,0.,24.0
1979-07-24 05:55:07.400 ,7,0,0.,24.0,0.,24.0
1979-07-24 05:55:31.400 ,3,1,0.,24.0,0.,24.0
1979-07-24 05:55:55.400 ,0,1,0.,24.0,0.,24.0
1979-07-24 05:56:19.400 ,4,1,0.,24.0,0.,24.0
1979-07-24 05:56:43.400 ,7,1,0.,24.0,0.,24.0
1979-07-24 05:57:07.400 ,3,1,0.,24.0,0.,24.0
1979-07-24 05:57:31.400 ,0,1,0.,24.0,0.,24.0
1979-07-24 05:57:55.400 ,4,1,0.,24.0,0.,24.0
1979-07-24 05:58:19.400 ,7,1,0.,24.0,0.,24.0
1979-07-24 05:58:43.400 ,3,1,0.,24.0,0.,24.0
1979-07-24 05:59:07.400 ,0,1,0.,24.0,0.,24.0
1979-07-24 05:59:31.400 ,4,1,0.,24.0,0.,24.0
1979-07-24 05:59:55.400 ,7,1,0.,24.0,0.,24.0
1979-07-24 06:00:19.400 ,3,1,0.,24.0,0.,24.0
